星链-36507(STARLINK-36507)

导读 | 豆包AI

STARLINK-36507是美国SpaceX星链卫星互联网项目的卫星,于2026年1月12日发射升空,归属星链低轨卫星星座。星链项目旨在为全球范围提供高速互联网服务,该卫星加入后将进一步完善星座网络覆盖,提升通信服务能力,推动全球互联网络建设,也成为美国低轨通信星座部署进程中的新组成部分。

基本信息
目录编号:
67409
目录名称:
STARLINK-36507
国际标识:
2026-005F
轨道中心:
EARTH
卫星名称:
星链-36507
卫星全名:
星链-36507(STARLINK-36507)
卫星状态:
在轨 (已飞行133 天)
发射日期:
2026-01-12 UTC
国别 :
美国 (US)
星等 :
--
轨道信息
数据来源 国际轨道数据 AOE轨道数据
星历时间 2026-05-25T09:26:50+0800
7小时前
查看轨道信息
2026-05-24T02:00:00+0800
1天前
查看轨道信息
半长轴 6861.154km 6861.063km
偏心率 0.0001337 0.0001874
轨道倾角 42.999° 43.000°
近地点辐角 288.530° 316.188°
升交点赤经 166.921° 174.326°
平近点角 71.540° 29.734°
近地点 482.099km 481.64km
远地点 483.935km 484.212km
周期 94.266分钟 94.264分钟
每日圈数 15.275908 15.276213
详细信息
固有亮度:
5
最大亮度:
2.5
卫星平台:
Starlink V1.0
覆盖范围:
全球
运营商:
太空探索技术公司
运营商所在国:
美国
制造商(研发单位):
太空探索技术公司
制造商所在国:
美国
使用方式:
暂无
卫星简介
Starlink 计划是 SpaceX 推出的全球卫星互联网项目,通过发射低轨道卫星,为全球尤其是偏远地区提供高速、低延迟的互联网服务。自 2019 年起,Starlink 已部署数千颗卫星,旨在缩小全球数字鸿沟,推动互联网普及。该项目还为军事、航空等行业提供通信支持,带来广泛经济效益。
2D轨道图
3D轨道图
轨道高度分析图
轨道倾角分析图
轨道综合分析图
查看轨道综合分析图